| time (UTC) | temp F | wind direction | speed knots | gust knots | rain 1hr in | rain 24hr in | rain mn in | humidity % | barometer mb |
| 20260503171527 | 55 | 194 | 6.1 | 12.2 | 0.00 | 0.02 | 0.02 | 64 | 1008.4 |
| 20260503171013 | 54 | 197 | 5.2 | 9.6 | 0.00 | 0.02 | 0.02 | 67 | 1008.7 |
| 20260503150525 | 57 | 249 | 9.6 | 17.4 | 0.00 | 0.00 | 0.00 | 58 | 1009.9 |
| 20260503130957 | 51 | 246 | 5.2 | 12.2 | 0.00 | 0.00 | 0.00 | 60 | 1010.7 |
| 20260503110514 | 48 | 286 | 3.5 | 8.7 | 0.00 | 0.00 | 0.00 | 61 | 1010.8 |
| 20260503090500 | 49 | 231 | 4.3 | 9.6 | 0.00 | 0.00 | 0.00 | 56 | 1011.4 |
| 20260503081454 | 48 | 216 | 3.5 | 9.6 | 0.00 | 0.00 | 0.00 | 56 | 1011.8 |
| 20260503080449 | 48 | 273 | 3.5 | 7.0 | 0.00 | 0.00 | 0.00 | 58 | 1011.9 |
| 20260503072917 | 46 | 240 | 2.6 | 6.1 | 0.00 | 0.00 | 0.00 | 62 | 1012.1 |
| 20260503071444 | 46 | 216 | 1.7 | 4.3 | 0.00 | 0.00 | 0.00 | 63 | 1012.2 |
| 20260503070444 | 45 | 194 | 2.6 | 7.0 | 0.00 | 0.00 | 0.00 | 64 | 1012.2 |
| 20260503054427 | 42 | 260 | 0.9 | 3.5 | 0.00 | 0.00 | 0.00 | 72 | 1012.9 |
| 20260503053427 | 42 | 216 | 0.9 | 2.6 | 0.00 | 0.00 | 0.00 | 73 | 1012.9 |
| 20260503052426 | 42 | 289 | 0.9 | 2.6 | 0.00 | 0.00 | 0.00 | 74 | 1013.0 |
| 20260503051426 | 42 | 212 | 0.9 | 2.6 | 0.00 | 0.00 | 0.00 | 75 | 1013.0 |
| 20260503050427 | 42 | 209 | 0.9 | 4.3 | 0.00 | 0.00 | 0.00 | 76 | 1013.1 |
| 20260503045909 | 41 | 214 | 0.9 | 1.7 | 0.00 | 0.00 | 0.00 | 77 | 1013.1 |
| 20260503044424 | 41 | 207 | 0.9 | 2.6 | 0.00 | 0.00 | 0.00 | 78 | 1013.2 |
| 20260503043422 | 42 | 282 | 0.9 | 3.5 | 0.00 | 0.00 | 0.00 | 79 | 1013.2 |
| 20260503042419 | 42 | 211 | 0.9 | 2.6 | 0.00 | 0.00 | 0.00 | 77 | 1013.3 |
| 20260503041916 | 42 | 199 | 0.9 | 2.6 | 0.00 | 0.00 | 0.00 | 78 | 1013.4 |
| 20260503040417 | 42 | 260 | 0.9 | 3.5 | 0.00 | 0.00 | 0.00 | 78 | 1013.4 |
| 20260503035418 | 42 | 303 | 1.7 | 3.5 | 0.00 | 0.00 | 0.00 | 77 | 1013.5 |
| 20260503034418 | 42 | 188 | 1.7 | 4.3 | 0.00 | 0.00 | 0.00 | 78 | 1013.6 |
| 20260503033418 | 42 | 231 | 1.7 | 4.3 | 0.00 | 0.00 | 0.00 | 78 | 1013.7 |
| 20260503032419 | 42 | 191 | 1.7 | 4.3 | 0.00 | 0.00 | 0.00 | 78 | 1013.7 |
| 20260503031418 | 42 | 227 | 1.7 | 5.2 | 0.00 | 0.00 | 0.00 | 77 | 1013.8 |
| 20260503030426 | 43 | 194 | 2.6 | 6.1 | 0.00 | 0.00 | 0.00 | 77 | 1014.0 |
| 20260503025414 | 43 | 198 | 2.6 | 7.0 | 0.00 | 0.00 | 0.00 | 77 | 1014.1 |
| 20260503024413 | 43 | 240 | 3.5 | 7.0 | 0.00 | 0.00 | 0.00 | 76 | 1014.2 |
| 20260503023416 | 43 | 201 | 2.6 | 7.0 | 0.00 | 0.00 | 0.00 | 76 | 1014.2 |
| 20260503022414 | 43 | 173 | 2.6 | 7.0 | 0.00 | 0.00 | 0.00 | 75 | 1014.2 |
| 20260503021417 | 43 | 222 | 2.6 | 7.0 | 0.00 | 0.00 | 0.00 | 75 | 1014.2 |
| 20260503020414 | 43 | 186 | 2.6 | 5.2 | 0.00 | 0.00 | 0.00 | 74 | 1014.1 |
| 20260503015414 | 44 | 197 | 2.6 | 7.0 | 0.00 | 0.00 | 0.00 | 73 | 1014.0 |
| 20260503014411 | 44 | 184 | 3.5 | 7.8 | 0.00 | 0.00 | 0.00 | 72 | 1014.0 |
| 20260503013411 | 44 | 205 | 2.6 | 6.1 | 0.00 | 0.00 | 0.00 | 71 | 1014.0 |
| 20260503012412 | 44 | 184 | 3.5 | 7.8 | 0.00 | 0.00 | 0.00 | 70 | 1014.0 |
| 20260503011412 | 45 | 190 | 3.5 | 6.1 | 0.00 | 0.00 | 0.00 | 68 | 1014.0 |
| 20260503010412 | 45 | 172 | 2.6 | 6.1 | 0.00 | 0.00 | 0.00 | 67 | 1014.0 |
| 20260503005412 | 46 | 190 | 2.6 | 5.2 | 0.00 | 0.00 | 0.00 | 66 | 1014.0 |
| 20260503004855 | 46 | 224 | 1.7 | 5.2 | 0.00 | 0.00 | 0.00 | 65 | 1014.0 |
| 20260503003859 | 46 | 172 | 2.6 | 7.0 | 0.00 | 0.00 | 0.00 | 64 | 1014.1 |
| 20260503002409 | 47 | 224 | 2.6 | 7.8 | 0.00 | 0.00 | 0.00 | 62 | 1014.2 |
| 20260503001409 | 47 | 180 | 3.5 | 7.0 | 0.00 | 0.00 | 0.00 | 61 | 1014.2 |
| 20260503000410 | 48 | 248 | 3.5 | 7.8 | 0.00 | 0.00 | 0.00 | 60 | 1014.3 |
| 20260502235848 | 48 | 281 | 3.5 | 9.6 | 0.00 | 0.00 | 0.00 | 59 | 1014.3 |
| 20260502234410 | 49 | 174 | 4.3 | 8.7 | 0.00 | 0.00 | 0.00 | 57 | 1014.5 |
| 20260502233852 | 49 | 249 | 4.3 | 9.6 | 0.00 | 0.00 | 0.00 | 56 | 1014.6 |
| 20260502232410 | 49 | 220 | 3.5 | 10.4 | 0.00 | 0.00 | 0.00 | 56 | 1014.7 |
| 20260502231407 | 49 | 155 | 3.5 | 8.7 | 0.00 | 0.00 | 0.00 | 56 | 1014.7 |
| 20260502230839 | 49 | 188 | 3.5 | 8.7 | 0.00 | 0.00 | 0.00 | 55 | 1014.8 |
| 20260502225405 | 50 | 198 | 3.5 | 7.8 | 0.00 | 0.00 | 0.00 | 54 | 1014.9 |
| 20260502224405 | 50 | 166 | 3.5 | 8.7 | 0.00 | 0.00 | 0.00 | 53 | 1015.1 |
| 20260502224329 | 49 | 196 | 2.6 | 7.0 | 0.00 | 0.00 | 0.00 | 56 | 1015.1 |
| 20260502222404 | 49 | 235 | 3.5 | 7.8 | 0.00 | 0.00 | 0.00 | 56 | 1015.1 |
| 20260502221405 | 49 | 165 | 3.5 | 7.8 | 0.00 | 0.00 | 0.00 | 57 | 1015.2 |
| 20260502220405 | 49 | 103 | 3.5 | 7.8 | 0.00 | 0.00 | 0.00 | 55 | 1015.2 |
| 20260502215402 | 50 | 198 | 3.5 | 7.8 | 0.00 | 0.00 | 0.00 | 55 | 1015.3 |
| 20260502214840 | 50 | 134 | 2.6 | 7.0 | 0.00 | 0.00 | 0.00 | 55 | 1015.4 |
| 20260502213359 | 50 | 180 | 3.5 | 9.6 | 0.00 | 0.00 | 0.00 | 54 | 1015.4 |
| 20260502212359 | 50 | 94 | 2.6 | 7.8 | 0.00 | 0.00 | 0.00 | 53 | 1015.4 |
| 20260502211836 | 50 | 219 | 3.5 | 7.0 | 0.00 | 0.00 | 0.00 | 53 | 1015.5 |
| 20260502210400 | 51 | 191 | 2.6 | 7.8 | 0.00 | 0.00 | 0.00 | 55 | 1015.6 |
| 20260502205359 | 50 | 186 | 3.5 | 7.8 | 0.00 | 0.00 | 0.00 | 53 | 1015.7 |
| 20260502204400 | 51 | 110 | 2.6 | 6.1 | 0.00 | 0.00 | 0.00 | 52 | 1015.8 |
| 20260502203359 | 50 | 162 | 3.5 | 7.8 | 0.00 | 0.00 | 0.00 | 54 | 1015.9 |
| 20260502202357 | 50 | 154 | 2.6 | 7.0 | 0.00 | 0.00 | 0.00 | 53 | 1016.0 |
| 20260502202311 | 51 | 151 | 3.5 | 8.7 | 0.00 | 0.00 | 0.00 | 54 | 1016.1 |
| 20260502200406 | 51 | 33 | 3.5 | 7.8 | 0.00 | 0.00 | 0.00 | 56 | 1016.3 |
| 20260502195355 | 51 | 125 | 3.5 | 7.8 | 0.00 | 0.00 | 0.00 | 53 | 1016.4 |
| 20260502194355 | 50 | 141 | 2.6 | 7.8 | 0.00 | 0.00 | 0.00 | 56 | 1016.6 |
| 20260502193827 | 49 | 225 | 1.7 | 6.1 | 0.00 | 0.00 | 0.00 | 53 | 1016.9 |
| 20260502192355 | 49 | 99 | 4.3 | 9.6 | 0.00 | 0.00 | 0.00 | 52 | 1017.0 |
| 20260502191838 | 50 | 74 | 3.5 | 9.6 | 0.00 | 0.00 | 0.00 | 52 | 1016.9 |
| 20260502190353 | 50 | 129 | 3.5 | 7.8 | 0.00 | 0.00 | 0.00 | 51 | 1017.0 |
| 20260502185349 | 50 | 77 | 3.5 | 8.7 | 0.00 | 0.00 | 0.00 | 51 | 1017.1 |
| 20260502184349 | 51 | 254 | 2.6 | 7.0 | 0.00 | 0.00 | 0.00 | 52 | 1017.2 |
| 20260502183350 | 50 | 108 | 2.6 | 7.0 | 0.00 | 0.00 | 0.00 | 50 | 1017.3 |
| 20260502182350 | 51 | 235 | 2.6 | 7.0 | 0.00 | 0.00 | 0.00 | 50 | 1017.5 |
| 20260502181350 | 52 | 65 | 3.5 | 7.0 | 0.00 | 0.00 | 0.00 | 49 | 1017.6 |
| 20260502180350 | 53 | 244 | 2.6 | 7.0 | 0.00 | 0.00 | 0.00 | 43 | 1017.6 |